Regional Weather Roundup
Issued by NWS Wakefield, VA

Home | Current Version | Previous Version | Graphics & Text | Print | Product List | Glossary On
Versions: 1 2 3 4 5 6 7 8 9 10 11 12 13 14 15 16 17 18 19 20 21 22 23 24 25 26 27
000
ASUS41 KAKQ 190712
RWRAKQ

REGIONAL WEATHER ROUNDUP
NATIONAL WEATHER SERVICE WAKEFIELD VA
200 AM EST SUN NOV 19 2017

Note: "fair" indicates few or no clouds below 12,000 feet with no
significant weather and/or obstructions to visibility. * = Denotes
station may not report precipitation (e.g., rain,snow,etc.),
thunder or fog.

VAZ042-051-052>054-056-190800-
NORTHERN VIRGINIA

CITY           SKY/WX    TMP DP  RH WIND       PRES   REMARKS
WASH NATIONAL  LGT RAIN  60  55  83 S12       29.39S
DULLES         LGT RAIN  56  55  97 S14G20    29.37S
FORT BELVOIR   LGT RAIN  58  53  81 S7        29.39F
QUANTICO       NOT AVBL
FREDERICKSBRG* CLOUDY    59  55  88 S7        29.40S
STAFFORD*      CLOUDY    57  56  98 S7        29.44S
WARRENTON      NOT AVBL
CULPEPER*      CLOUDY    60  51  72 S13       29.38F
MANASSAS*      LGT RAIN  58  54  86 SW7       29.38F
LEESBURG*      CLOUDY    57  55  94 S16G23    29.34F
WINCHESTER     CLOUDY    57  50  77 S17G28    29.29F
FRONT ROYAL*   PTSUNNY   57  52  82 S10G24    29.29F
LURAY*         LGT RAIN  57  52  82 SW13      29.35F
$$

VAZ048-049-060>072-079>083-190800-
CENTRAL AND SOUTH CENTRAL VIRGINIA

CITY           SKY/WX    TMP DP  RH WIND       PRES   REMARKS
RICHMOND       LGT RAIN  63  54  72 S21G31    29.45F
CHESTERFIELD*  NOT AVBL
PETERSBURG*    NOT AVBL
HANOVER        CLOUDY    64  53  67 S14G24    29.45S
TAPPAHANNOCK*    N/A    N/A N/A N/A MISG        N/A
QUINTON*       FAIR      64  55  72 S15G22    29.45F
CHARLOTTSVILLE PTCLDY    61  51  70 S22G29    29.37F
GORDONSVILLE*  CLOUDY    61  54  77 SW20G31   29.39F
ORANGE*        CLOUDY    59  52  77 SW17G25   29.40S
LOUISA*        LGT RAIN  58  54  84 SW8         N/A
BUMPASS*       CLOUDY    60  54  80 SW13G21   29.43R
FARMVILLE*     RAIN      65  55  68 SW16G26   29.45R
CREWE*         CLOUDY    64  53  68 S8G17     29.46S
FORT PICKETT*  NOT AVBL
CHASE CITY*    CLOUDY    64  52  67 S8        29.49S
CLARKSVILLE*   PTSUNNY   63  52  67 S16G26    29.49F
SOUTH HILL*    CLOUDY    64  54  72 S18G30    29.56F
LAWRENCEVILLE* FAIR      65  52  62 SW17G25   29.49F
EMPORIA*       MOCLDY    63  52  67 S13G21    29.53F
$$

VAZ088>098-190800-
SOUTHEAST VIRGINIA

CITY           SKY/WX    TMP DP  RH WIND       PRES   REMARKS
NORFOLK        CLOUDY    65  53  65 SW22G31   29.53F
VIRGINIA BEACH NOT AVBL
NORFOLK NAVAL  CLOUDY    65  52  62 S14G20    29.53F
WEST POINT*    CLOUDY    65  53  64 S15G30    29.47F
SALUDA*        FAIR      64  55  71 S15G31    29.46F
NEWPORT NEWS   CLOUDY    64  53  67 S17G28    29.51F
LANGLEY AFB    CLOUDY    64  54  70 S21G28    29.52F
FORT EUSTIS    CLOUDY    64  54  70 S13G25    29.48F
WILLIAMSBURG*  CLOUDY    66  55  68 S14G22    29.50F
HR EXEC AP*    NOT AVBL
FRANKLIN*      CLOUDY    65  53  65 SW17G28   29.54F
US460-WAKEFLD  CLOUDY    65  54  67 S9G21     29.50F
$$

VAZ020-022-025-037-045-190800-
WEST CENTRAL AND SOUTHWEST VIRGINIA

CITY           SKY/WX    TMP DP  RH WIND       PRES   REMARKS
STAUNTON*      LGT RAIN  55  52  88 SW13G21   29.39F
WAYNESBORO*    CLOUDY    57  52  82 S12G23    29.37F
HOT SPRINGS VA DRIZZLE   48  48 100 W37G47    29.44S
LYNCHBURG      CLOUDY    60  53  77 SW7G16    29.46F
DANVILLE       LGT RAIN  59  56  89 W14       29.55R
SOUTH BOSTON*  CLOUDY    64  52  64 W10G21    29.51R
MARTINSVILLE   CLOUDY    56  54  91 SW3       29.55S
ROANOKE        LGT RAIN  57  54  89 VRB5      29.48F
BLACKSBURG     LGT RAIN  52  47  84 W20G33    29.56R
DUBLIN*        LGT RAIN  53  48  82 W21G40    29.57R
MARION*        CLOUDY    46  38  73 W31G44    29.63R
HILLSVILLE*    LGT RAIN  50  45  83 W24G40    29.57R
RICHLANDS*     DRIZZLE   41  37  84 NW9G24    29.72R
WISE*          RAIN      39  39 100 W18G24    29.78R
ABINGDON*      RAIN      46  43  89 NW8       29.75R
$$

MDZ021>025-VAZ099-100-190800-
SOUTHERN MARYLAND AND THE DELMARVA PENINSULA

CITY           SKY/WX    TMP DP  RH WIND       PRES   REMARKS
PATUXENT RIVER NOT AVBL
BAY BRIDGE APT RAIN      63  54  72 S17G25    29.38F
LEONARDTOWN    CLOUDY    64  52  63 SW14G21   29.43F
DOVER          LGT RAIN  61  54  77 S23G32    29.37F
GEORGETOWN     LGT RAIN  66  53  63 SW25G41   29.43F
EASTON         DRIZZLE   61  55  79 S15       29.43F
CAMBRIDGE      CLOUDY    61  55  82 S12G24    29.42F
SALISBURY      MOCLDY    65  54  67 SW29G39   29.45F
OCEAN CITY     MOCLDY    59  55  87 SW22G37   29.49F
WALLOPS ISLAND CLOUDY    62  55  77 S23G32    29.50F
ACCOMACK*      CLOUDY    63  55  74 S14G22    29.51S
$$

NCZ012>017-030>032-190800-
NORTH CENTRAL AND EASTERN NORTH CAROLINA

CITY           SKY/WX    TMP DP  RH WIND       PRES   REMARKS
ROANOKE RAPIDS   N/A    N/A N/A N/A MISG        N/A
RALEIGH        CLOUDY    64  52  64 SW20G31   29.55F
ELIZABETH CITY CLOUDY    64  56  75 S18G26    29.60F
AHOSKIE*       CLOUDY    64  53  69 S13G25    29.57F
EDENTON*       CLOUDY    65  55  71 SW13G21   29.62F
CURRITUCK*     CLOUDY    64  54  69 S10G18    29.59F
KILL DEVIL HLS CLOUDY    63  53  69 SW10G18   29.63F
MANTEO         CLOUDY    63  55  73 SW21      29.65F
CAPE HATTERAS  MOCLDY    66  63  90 SW16G24   29.70F
TARBORO*       NOT AVBL
GOLDSBORO      CLOUDY    65  54  68 SW15G25   29.60F
WASHINGTON     PTCLDY    64  55  71 SW16      29.63F
GREENVILLE     CLOUDY    64  54  68 SW17G23   29.65F
NEW BERN       PTCLDY    65  57  75 SW15G24   29.68F
WILMINGTON     CLEAR     68  57  68 SW17G28   29.70F
$$

VAZ048-190800-
ELSEWHERE

CITY           SKY/WX    TMP DP  RH WIND       PRES   REMARKS
HARRISBURG PA  LGT RAIN  57  52  83 S13G29    29.24F
BALTIMORE      LGT RAIN  58  56  93 S10G18    29.36F FOG
ANNAPOLIS      NOT AVBL
ANDREWS AFB    DRIZZLE   59  54  83 S18       29.37F
PHILADELPHIA   LGT RAIN  60  53  77 SW23G32   29.37S
HENDERSON NC   CLOUDY    61  50  65 SW21G30   29.53S
GREENSBORO     LGT RAIN  59  57  93 W10       29.56R FOG
ROCKY MOUNT    CLOUDY    64  54  69 S15G25    29.58F
$$

VAZ100-190800-
MARINE

STATION/POSITION TIME  TEMP    WIND        PRES    WAVE   SWELL
                       AIR SEA DIR/SP/G            HT/PER HT/PER
                 (UTC) (F)     (DEG/KT/KT) (MB)    (FT/S) (FT/S)
15NM E FENWICK I 0650   63 59  200/ 29/ 33  997.0F  10/ 7
THOMAS POINT MD  0700   60 55  200/ 20/ 21   N/A
CAPE HENRY BUOY  0630      58                N/A     5/ 6
CAPE CHARLES BUO 0651      58                N/A     4/ 6
64NM E OF VA BCH 0650   65 61  210/ 23/ 27 1003.0F   7/ 5   2/10
44100 DUCK FRF   0645      60                N/A     3/ 5
44056 DUCK FRF   0630      62                N/A     2/ 6
DIAMOND SHLS NC  0650   67     220/ 23/ 35 1006.3F   8/ 8   3/13
CAPE LOOKOUT NC  0700          220/ 15/ 20 1006.2F
$$




USA.gov is the U.S. government's official web portal to all federal, state and local government web resources and services.